Tracking 29799 objects as of 11-Oct-2024
HD Live streaming from Space Station
objects crossing your sky now

STARLINK-30851

Track STARLINK-30851 now!
10-day predictions
STARLINK-30851 is classified as:


NORAD ID: 58215
Int'l Code: 2023-170K
Perigee: 565.2 km
Apogee: 567.2 km
Inclination: 43.0 °
Period: 95.8 minutes
Semi major axis: 6937 km
RCS: Unknown
Launch date: November 3, 2023
Source: United States (US)
Launch site: AIR FORCE EASTERN TEST RANGE (AFETR)
Your satellite tracking list
Your tracking list is empty




NASA's NSSDC Master Catalog

Two Line Element Set (TLE):
1 58215U 23170K   24284.83905006  .00002953  00000-0  23361-3 0  9992
2 58215  43.0037 113.3807 0001449 276.0101  84.0576 15.02535133 52834
Source of the keplerian elements: AFSPC